Weather History for PAED - November, 2012

Change the Weather History Date:

Wednesday, November 21, 2012

  Actual Average Record
Temperature  
Mean Temperature 4 °F -  
Max Temperature 12 °F 26 °F 49 °F (1952)
Min Temperature -4 °F 15 °F -9 °F (1963)
Degree Days  
Heating Degree Days 61    
Moisture  
Dew Point -4 °F    
Average Humidity 75    
Maximum Humidity 81    
Minimum Humidity 67    
Precipitation  
Precipitation 0.00 in - - ()
Snow  
Snow 0.00 in - - ()
Snow Depth 2.00 in    
Sea Level Pressure  
Sea Level Pressure 29.73 in    
Wind  
Wind Speed 1 mph (East)    
Max Wind Speed 9 mph    
Max Gust Speed -    
Visibility 10 miles    
Events      
Averages and records for this station are not official NWS values.
T = Trace of Precipitation, MM = Missing Value Source: NWS Daily Summary

Daily Weather History Graph

Daily Weather History Graph

Search for Another Location

Airport or City:

Trip Planner

Search our weather history database for the weather conditions in past years. The results will help you decide how hot, cold, wet, or windy it might be!

Date:

Astronomy

Nov. 21, 2012 Rise Set
Actual Time 9:23 AM AKST 4:06 PM AKST
Civil Twilight 8:28 AM AKST 5:01 PM AKST
Nautical Twilight 7:32 AM AKST 5:56 PM AKST
Astronomical Twilight 6:41 AM AKST 6:48 PM AKST
Moon 2:03 PM AKST (11/21) 1:07 AM AKST (11/21)
Length of Visible Light 8h 32m
Length of Day
6h 43m
Waxing Gibbous, 63% of the Moon is Illuminated
Nov 21
Waxing Gibbous
Nov 28
Full
Dec 6
Last Quarter
Dec 12
New
Dec 19
First Quarter

Hourly Weather History & Observations

Time (AKST) Temp. Windchill Dew Point Humidity Pressure Visibility Wind Dir Wind Speed Gust Speed Precip Events Conditions
12:55 AM 4.6 °F - -2.7 °F 72% 29.69 in 10.0 mi Calm Calm - N/A   Clear
1:55 AM 2.5 °F - -3.8 °F 75% 29.69 in 10.0 mi Calm Calm - N/A   Clear
2:55 AM -0.2 °F - -5.3 °F 79% 29.69 in 10.0 mi Calm Calm - N/A   Clear
3:55 AM 0.9 °F - -4.4 °F 79% 29.69 in 10.0 mi Calm Calm - N/A   Clear
4:55 AM -1.7 °F - -6.9 °F 78% 29.69 in 10.0 mi Calm Calm - N/A   Clear
5:55 AM -1.5 °F - -6.5 °F 79% 29.69 in 10.0 mi Calm Calm - N/A   Clear
6:55 AM -4.0 °F - -9.6 °F 77% 29.68 in 10.0 mi Calm Calm - N/A   Clear
7:55 AM -3.8 °F - -9.4 °F 77% 29.69 in 10.0 mi Calm Calm - N/A   Clear
8:55 AM -2.6 °F - -8.5 °F 76% 29.70 in 10.0 mi Calm Calm - N/A   Clear
9:55 AM -4.2 °F - -10.3 °F 75% 29.71 in 10.0 mi Calm Calm - N/A   Clear
10:55 AM -0.2 °F -10.1 °F -6.2 °F 76% 29.72 in 10.0 mi East 4.6 mph - N/A   Clear
11:55 AM 4.6 °F - -1.5 °F 76% 29.72 in 10.0 mi Calm Calm - N/A   Clear
12:55 PM 10.4 °F - 1.6 °F 68% 29.72 in 10.0 mi Calm Calm - N/A   Clear
1:55 PM 12.4 °F 6.3 °F 3.2 °F 67% 29.73 in 10.0 mi East 3.5 mph - N/A   Clear
2:55 PM 10.6 °F - 2.3 °F 69% 29.72 in 10.0 mi Calm Calm - N/A   Clear
3:55 PM 10.8 °F - 2.1 °F 68% 29.73 in 10.0 mi Calm Calm - N/A   Clear
4:55 PM 6.1 °F - -1.1 °F 72% 29.74 in 10.0 mi Calm Calm - N/A   Clear
5:55 PM 3.4 °F - -1.3 °F 81% 29.75 in 10.0 mi Calm Calm - N/A   Clear
6:55 PM 1.4 °F -6.2 °F -3.8 °F 79% 29.77 in 10.0 mi East 3.5 mph - N/A   Clear
7:55 PM 0.9 °F -6.9 °F -4.4 °F 79% 29.78 in 10.0 mi ESE 3.5 mph - N/A   Clear
8:55 PM -0.8 °F - -5.6 °F 80% 29.79 in 10.0 mi Calm Calm - N/A   Clear
9:55 PM -2.2 °F - -7.8 °F 77% 29.81 in 10.0 mi Calm Calm - N/A   Clear
10:55 PM 8.4 °F -4.9 °F 1.4 °F 73% 29.83 in 10.0 mi NE 9.2 mph - N/A   Clear
11:55 PM -0.0 °F - -5.8 °F 77% 29.84 in 10.0 mi Calm Calm - N/A   Clear